Regional Weather Roundup
Issued by NWS Burlington, VT

Home | Current Version | Previous Version | Text Only | Print | Product List | Glossary On
Versions: 1 2 3 4 5 6 7 8 9 10 11 12 13 14 15 16 17 18 19 20 21 22 23 24 25 26 27 28 29 30 31 32 33 34 35 36 37 38 39 40 41 42 43 44 45 46 47 48 49 50
000
ASUS41 KBTV 300110
RWRBTV
VERMONT REGIONAL WEATHER ROUNDUP
NATIONAL WEATHER SERVICE BURLINGTON VT
900 PM EDT SUN MAR 29 2015

NOTE: "FAIR" INDICATES FEW OR NO CLOUDS BELOW 12,000 FEET WITH NO
SIGNIFICANT WEATHER AND/OR OBSTRUCTIONS TO VISIBILITY.

* THESE REPORTS ARE NOT UNDER NWS QUALITY CONTROL AND/OR DO NOT
  REPORT WEATHER SUCH AS PRECIPITATION AND FOG.

VTZ001>019-300200-
_____VERMONT_____


CITY           SKY/WX    TMP DP  RH WIND       PRES   REMARKS
BURLINGTON     MOCLDY    37   9  31 S12       29.99F
MONTPELIER       N/A     31  11  43 S9        30.02F
MORRISVILLE      N/A     29  16  58 CALM      29.99F
ST. JOHNSBURY*   N/A     29  13  51 MISG      30.00F
LYNDONVILLE*     N/A     31   0  27 E3        30.00F
MIDDLEBURY*      N/A     35   9  33 S10       30.01F
RUTLAND*       CLEAR     32   9  37 SE6       30.03F
SPRINGFIELD    CLEAR     27  12  53 CALM      30.06F
HIGHGATE*        N/A     35  11  38 S6        29.98F
NEWPORT*         N/A     31   8  39 S3        29.98F
BENNINGTON     CLEAR     27  14  58 S5        30.03F
SUTTON*          N/A     25 N/A N/A MISG        N/A

_____LAKE CHAMPLAIN_____


CITY           SKY/WX    TMP DP  RH WIND       PRES   REMARKS

$$

NYZ007-026>031-035-052-083-300200-
_____NORTHERN NEW YORK_____


CITY           SKY/WX    TMP DP  RH WIND       PRES   REMARKS
PLATTSBURGH    PTCLDY    34  11  38 SW5       29.98F
SARANAC LAKE   CLEAR     23  11  60 SW5       29.92R
MASSENA        PTCLDY    27  13  55 S3        29.97F
OGDENSBURG*    CLEAR     32  16  51 S5        29.94F
POTSDAM*       CLEAR     30  12  47 S5        29.96F
WATERTOWN      MOCLDY    36  11  35 S8        29.94F
FT DRUM        PTCLDY    32   7  34 SE13      29.94F
ALBANY         PTCLDY    32  11  41 S3        30.07F
GLENS FALLS    PTCLDY    33  11  39 S7        30.05F

$$
NHZ002-005-011-300200-
_____NEW HAMPSHIRE_____


CITY           SKY/WX    TMP DP  RH WIND       PRES   REMARKS
LEBANON        CLEAR     31  14  49 CALM      30.04F
KEENE          CLEAR     27  16  63 CALM      30.08F
MT WASHINGTON  PTCLDY    14 -13  29 W24         N/A  WCI  -5
PLYMOUTH         N/A     27  22  82 CALM      30.05F
WHITEFIELD     CLEAR     26  12  55 CALM      30.01F

$$

_____REGIONAL QUEBEC LOCATIONS_____


CITY           SKY/WX    TMP DP  RH WIND       PRES   REMARKS
MONTREAL       MOCLDY    32  14  47 SW10      29.97F
QUEBEC CITY    PTCLDY    28  16  59 SW6       29.94F
SHERBROOKE     PTCLDY    28   9  43 SE6       29.96F

_____REGIONAL ONTARIO LOCATIONS_____


CITY           SKY/WX    TMP DP  RH WIND       PRES   REMARKS
OTTAWA         MOCLDY    32  14  47 S14G22    29.91F

______KEY______
VSB  - VISIBILITY IN MILES
WCI  - WIND CHILL INDEX
HX   - HEAT INDEX
$$
NNNN


USA.gov is the U.S. government's official web portal to all federal, state and local government web resources and services.